Find Starlink 6372

NORAD ID: 57348 Int'l Des: 2023-099 Owner: SPXS Country: US Constellation: starlink operational
LEOCIRCULAR

当前视图

正在加载3D地球...

About Starlink 6372

Starlink 6372 (NORAD 57348) is a starlink constellation satellite (v1.5) launched Jul 16, 2023 by SPXS of US. It operates in LEO, CIRCULAR orbit with a mass of 305.00 kg.

关于 Starlink 6372

正在加载描述...

即将过境

Passes for default location (London). Set your location on the main map for personalized predictions.

高度历史

Loading altitude history...

两行轨道根数

1 57348U 23099W 26167.94164314 .00000732 00000-0 36129-4 0 9991
2 57348 43.0048 48.6454 0001778 269.9907 90.0741 15.27580752161296
Epoch: Jun 16, 2026 • Age: 38 hours

当前状态

高度 487.4 km
速度 7.63 km/s
星下点 43.05°N, 28.34°E
发射日期 Jul 16, 2023
运行时间 2.9 years
类型 internet

技术详情

分类 Payload
质量 305.00 kg
干质量 290.00 kg
总质量 305.00 kg
长度 0.20 m
直径 2.80 m
跨度 9.00 m
形状 Box + pan
制造商 SPXS
平台类型 Starlink
阶段状态 In Orbit
所有者/国家 SPXS/US

Most Searched